This is the latest recevied weather packets stored in our database for station/object DG9MHV-10. If no packets are shown the sender has not sent any weather packets the latest 10 day(s).
| Time | Temp. | Humidity | Pressure | Rain* | Wind** | Luminosity | Snow |
|---|---|---|---|---|---|---|---|
| 1777646477 | 20° C | 63% | 1024.4 hPa | - | - | - | - |
| 1777645577 | 20° C | 60% | 1024.4 hPa | - | - | - | - |
| 1777644677 | 20° C | 59% | 1024.5 hPa | - | - | - | - |
| 1777643776 | 20° C | 57% | 1024.6 hPa | - | - | - | - |
| 1777642876 | 20° C | 60% | 1024.7 hPa | - | - | - | - |
| 1777641975 | 20° C | 59% | 1024.9 hPa | - | - | - | - |
| 1777641075 | 20° C | 54% | 1025 hPa | - | - | - | - |
| 1777640175 | 20° C | 54% | 1025.1 hPa | - | - | - | - |
| 1777639275 | 19.44° C | 54% | 1025.4 hPa | - | - | - | - |
| 1777638375 | 19.44° C | 60% | 1025.5 hPa | - | - | - | - |
| 1777637475 | 19.44° C | 61% | 1025.4 hPa | - | - | - | - |
| 1777636575 | 19.44° C | 56% | 1025.5 hPa | - | - | - | - |
| 1777635675 | 18.89° C | 59% | 1025.7 hPa | - | - | - | - |
| 1777634775 | 18.89° C | 57% | 1026.1 hPa | - | - | - | - |
| 1777633875 | 18.89° C | 60% | 1025.9 hPa | - | - | - | - |
| 1777632975 | 18.33° C | 65% | 1026.1 hPa | - | - | - | - |
| 1777632075 | 17.78° C | 58% | 1026.1 hPa | - | - | - | - |
| 1777631174 | 17.78° C | 61% | 1026.3 hPa | - | - | - | - |
| 1777630275 | 17.78° C | 65% | 1026.4 hPa | - | - | - | - |
| 1777629374 | 17.78° C | 56% | 1026.5 hPa | - | - | - | - |
| 1777628474 | 17.78° C | 51% | 1026.5 hPa | - | - | - | - |
| 1777627574 | 17.78° C | 49% | 1026.6 hPa | - | - | - | - |
| 1777626674 | 18.89° C | 47% | 1026.6 hPa | - | - | - | - |
| 1777625774 | 19.44° C | 51% | 1026.7 hPa | - | - | - | - |
| 1777624874 | 17.78° C | 58% | 1026.7 hPa | - | - | - | - |
* Rain since midnight (hover to see other rain measurements)
** Current wind speed in m/s (hover to see current wind gust speed)